Weather History for Sacramento, CA

Change the Weather History Date:

Friday, August 31, 2012

  Actual Average Record
Temperature  
Mean Temperature 65 °F -  
Max Temperature 73 °F 90 °F 104 °F (1976)
Min Temperature 56 °F 57 °F 50 °F (1957)
Degree Days  
Heating Degree Days 0    
Month to date heating degree days 0  
Since 1 June heating degree days 18  
Cooling Degree Days 0    
Month to date cooling degree days 345  
Year to date cooling degree days 1001  
Since 1 June cooling degree days 861  
Growing Degree Days 14 (Base 50)    
Moisture  
Dew Point 51 °F    
Average Humidity 66    
Maximum Humidity 86    
Minimum Humidity 46    
Precipitation  
Precipitation 0.00 in 0.00 in 0.11 in (1964)
Month to date precipitation T 0.05  
Year to date precipitation 9.89 11.95  
Since 1 July precipitation 0.03 0.05  
Sea Level Pressure  
Sea Level Pressure 29.86 in    
Wind  
Wind Speed 11 mph (SSW)    
Max Wind Speed 21 mph    
Max Gust Speed 28 mph    
Visibility 10 miles    
Events      
T = Trace of Precipitation, MM = Missing Value Source: NWS Daily Summary

Daily Weather History Graph

Daily Weather History Graph

Search for Another Location

Airport:

Trip Planner

Search our weather history database for the weather conditions in past years. The results will help you decide how hot, cold, wet, or windy it might be!

Date:

Astronomy

Aug. 31, 2012 Rise Set
Actual Time 6:34 AM PDT 7:36 PM PDT
Civil Twilight 6:07 AM PDT 8:03 PM PDT
Nautical Twilight 5:35 AM PDT 8:35 PM PDT
Astronomical Twilight 5:01 AM PDT 9:09 PM PDT
Moon 7:26 PM PDT (8/31) 6:44 AM PDT (8/31)
Length of Visible Light 13h 55m
Length of Day
13h 01m
Full, 100% of the Moon is Illuminated
Aug 31
Full
Sep 8
Last Quarter
Sep 15
New
Sep 22
First Quarter
Sep 29
Full

Hourly Weather History & Observations

Time (PDT) Temp. Dew Point Humidity Pressure Visibility Wind Dir Wind Speed Gust Speed Precip Events Conditions
12:53 AM 57.0 °F 51.1 °F 81% 29.79 in 10.0 mi SSW 8.1 mph - N/A   Clear
1:53 AM 57.0 °F 51.1 °F 81% 29.79 in 10.0 mi SSW 6.9 mph 19.6 mph N/A   Clear
2:53 AM 55.9 °F 51.1 °F 84% 29.80 in 10.0 mi South 9.2 mph - N/A   Clear
3:53 AM 55.9 °F 51.1 °F 84% 29.81 in 10.0 mi SSW 10.4 mph 20.7 mph N/A   Partly Cloudy
4:14 AM 55.4 °F 51.8 °F 88% 29.81 in 10.0 mi SSW 11.5 mph 18.4 mph N/A   Mostly Cloudy
4:35 AM 55.4 °F 51.8 °F 88% 29.81 in 10.0 mi South 11.5 mph 19.6 mph N/A   Scattered Clouds
4:53 AM 55.9 °F 51.1 °F 84% 29.81 in 10.0 mi SSW 11.5 mph 18.4 mph N/A   Scattered Clouds
5:11 AM 55.4 °F 51.8 °F 88% 29.81 in 10.0 mi SSW 13.8 mph 23.0 mph N/A   Mostly Cloudy
5:53 AM 57.0 °F 51.1 °F 81% 29.83 in 10.0 mi SSW 12.7 mph 17.3 mph N/A   Overcast
6:53 AM 57.0 °F 51.1 °F 81% 29.85 in 10.0 mi SSW 13.8 mph 23.0 mph N/A   Overcast
7:53 AM 57.9 °F 51.1 °F 78% 29.86 in 10.0 mi SSW 13.8 mph 21.9 mph N/A   Overcast
8:53 AM 60.1 °F 51.1 °F 72% 29.87 in 10.0 mi SSW 15.0 mph 20.7 mph N/A   Overcast
9:17 AM 62.6 °F 51.8 °F 68% 29.87 in 10.0 mi SW 13.8 mph 21.9 mph N/A   Mostly Cloudy
9:33 AM 62.6 °F 51.8 °F 68% 29.88 in 10.0 mi SSW 15.0 mph 24.2 mph N/A   Scattered Clouds
9:53 AM 63.0 °F 52.0 °F 67% 29.88 in 10.0 mi SW 17.3 mph 23.0 mph N/A   Clear
10:53 AM 64.9 °F 52.0 °F 63% 29.90 in 10.0 mi SW 17.3 mph 23.0 mph N/A   Clear
11:53 AM 66.9 °F 52.0 °F 59% 29.90 in 10.0 mi SW 16.1 mph 20.7 mph N/A   Clear
12:53 PM 69.1 °F 52.0 °F 54% 29.90 in 10.0 mi South 12.7 mph 21.9 mph N/A   Clear
1:53 PM 72.0 °F 52.0 °F 49% 29.89 in 10.0 mi SSW 15.0 mph 21.9 mph N/A   Clear
2:53 PM 72.0 °F 52.0 °F 49% 29.88 in 10.0 mi SW 13.8 mph 25.3 mph N/A   Clear
3:53 PM 73.0 °F 52.0 °F 48% 29.86 in 10.0 mi SSW 13.8 mph 20.7 mph N/A   Clear
4:53 PM 72.0 °F 52.0 °F 49% 29.86 in 10.0 mi SW 15.0 mph 21.9 mph N/A   Clear
5:53 PM 69.1 °F 51.1 °F 53% 29.85 in 10.0 mi SSW 12.7 mph 21.9 mph N/A   Clear
6:53 PM 66.0 °F 51.1 °F 59% 29.86 in 10.0 mi Variable 6.9 mph 18.4 mph N/A   Clear
7:53 PM 62.1 °F 51.1 °F 67% 29.86 in 10.0 mi South 9.2 mph 21.9 mph N/A   Clear
8:53 PM 59.0 °F 51.1 °F 75% 29.89 in 10.0 mi SSW 9.2 mph 18.4 mph N/A   Clear
9:53 PM 57.2 °F 50.0 °F 77% 29.91 in 10.0 mi South 9.2 mph 16.1 mph N/A   Clear
10:53 PM 57.0 °F 50.0 °F 77% 29.91 in 10.0 mi South 8.1 mph - N/A   Clear
11:53 PM 57.0 °F 50.0 °F 77% 29.93 in 10.0 mi South 11.5 mph 18.4 mph N/A   Clear